���t,������,LONG,SHORT, ����
2018-05-08,515132.0,226601.0,106096.0,120505.0
2018-05-01,509659.0,221011.0,100443.0,120568.0
2018-04-24,494154.0,216944.0,86350.0,130594.0
2018-04-17,509032.0,238829.0,87353.0,151476.0
2018-04-10,508204.0,236344.0,88881.0,147463.0
2018-04-03,493677.0,221327.0,86946.0,134381.0
2018-03-27,514049.0,234656.0,93592.0,141064.0
2018-03-20,496964.0,219434.0,86695.0,132739.0
2018-03-13,584759.0,239453.0,93073.0,146380.0
2018-03-06,557530.0,227354.0,94382.0,132972.0
2018-02-27,567463.0,238287.0,100310.0,137977.0
2018-02-20,567534.0,229273.0,103147.0,126126.0
2018-02-13,564233.0,230785.0,103496.0,127289.0
2018-02-06,596937.0,251369.0,110546.0,140823.0
2018-01-30,603460.0,258022.0,109280.0,148742.0
2018-01-23,608683.0,262175.0,117458.0,144717.0
2018-01-16,594038.0,254344.0,114854.0,139490.0
2018-01-09,563400.0,242053.0,97362.0,144691.0
2018-01-02,542622.0,236808.0,108940.0,127868.0
2017-12-26,497744.0,208913.0,116765.0,92148.0
2017-12-19,485622.0,198398.0,112174.0,86224.0
2017-12-12,505744.0,206027.0,92138.0,113889.0
2017-12-05,499124.0,205400.0,112294.0,93106.0
2017-11-28,495561.0,205160.0,115479.0,89681.0
2017-11-21,465307.0,195909.0,100472.0,95437.0
2017-11-14,467842.0,200023.0,115437.0,84586.0
2017-11-07,446502.0,181335.0,95880.0,85455.0
2017-10-31,440384.0,173670.0,101573.0,72097.0
2017-10-24,445018.0,183539.0,100035.0,83504.0
2017-10-17,446338.0,186751.0,96299.0,90452.0
2017-10-10,450748.0,195816.0,97737.0,98079.0
2017-10-03,438663.0,187053.0,96220.0,90833.0
2017-09-26,429111.0,183679.0,95512.0,88167.0
2017-09-19,431108.0,190025.0,127272.0,62753.0
2017-09-12,487425.0,191102.0,105044.0,86058.0
2017-09-05,464988.0,194976.0,98667.0,96309.0
2017-08-29,469307.0,194331.0,107812.0,86519.0
2017-08-22,464445.0,197818.0,109842.0,87976.0
2017-08-15,462148.0,190336.0,111069.0,79267.0
2017-08-08,461152.0,201231.0,107546.0,93685.0
2017-08-01,457254.0,191477.0,108840.0,82637.0
2017-07-25,449086.0,197656.0,106814.0,90842.0
2017-07-18,446259.0,199540.0,108219.0,91321.0
2017-07-11,436899.0,190267.0,106479.0,83788.0
2017-07-03,422496.0,185925.0,108461.0,77464.0
2017-06-27,400560.0,179671.0,120976.0,58695.0
2017-06-20,379269.0,167245.0,122393.0,44852.0
2017-06-13,474300.0,164227.0,85174.0,79053.0
2017-06-06,447178.0,164889.0,90880.0,74009.0
2017-05-30,453280.0,176226.0,103357.0,72869.0
2017-05-23,449360.0,175032.0,110187.0,64845.0
2017-05-16,431659.0,164234.0,126630.0,37604.0
2017-05-09,418301.0,155581.0,133182.0,22399.0
2017-05-02,409936.0,159418.0,161071.0,-1653.0
2017-04-25,411006.0,157831.0,178726.0,-20895.0
2017-04-18,430589.0,185786.0,207435.0,-21649.0
2017-04-11,420332.0,173594.0,192550.0,-18956.0
2017-04-04,397594.0,155468.0,166873.0,-11405.0
2017-03-28,408853.0,163648.0,171571.0,-7923.0
2017-03-21,406717.0,159590.0,179252.0,-19662.0
2017-03-14,381474.0,148272.0,189299.0,-41027.0
2017-03-07,435309.0,137662.0,197163.0,-59501.0
2017-02-28,431635.0,143584.0,194748.0,-51164.0
2017-02-21,417129.0,130981.0,189232.0,-58251.0
2017-02-14,406350.0,125333.0,172097.0,-46764.0
2017-02-07,409178.0,126708.0,171659.0,-44951.0
2017-01-31,405541.0,125689.0,171402.0,-45713.0
2017-01-24,414447.0,131904.0,184252.0,-52348.0
2017-01-17,415090.0,128846.0,195346.0,-66500.0
2017-01-10,415212.0,134747.0,200570.0,-65823.0
2017-01-03,416239.0,129701.0,199757.0,-70056.0
2016-12-27,405681.0,123281.0,192689.0,-69408.0
2016-12-20,399589.0,117460.0,195505.0,-78045.0
2016-12-13,447679.0,123597.0,211110.0,-87513.0
2016-12-06,433237.0,123390.0,237946.0,-114556.0
2016-11-29,447190.0,136108.0,255348.0,-119240.0
2016-11-22,434768.0,127122.0,246470.0,-119348.0
2016-11-15,415752.0,121575.0,240757.0,-119182.0
2016-11-08,418007.0,118897.0,248211.0,-129314.0
2016-11-01,444502.0,126443.0,263828.0,-137385.0
2016-10-25,448471.0,142881.0,266737.0,-123856.0
2016-10-18,413183.0,128181.0,237449.0,-109268.0
2016-10-11,378774.0,114284.0,207756.0,-93472.0
2016-10-04,347643.0,105634.0,187693.0,-82059.0
2016-09-27,328490.0,100492.0,176522.0,-76030.0
2016-09-20,324525.0,95698.0,180723.0,-85025.0
2016-09-13,379624.0,91783.0,173258.0,-81475.0
2016-09-06,375985.0,97324.0,189954.0,-92630.0
2016-08-30,364843.0,108261.0,190186.0,-81925.0
2016-08-23,364044.0,105374.0,182032.0,-76658.0
2016-08-16,366037.0,103060.0,195568.0,-92508.0
2016-08-09,368693.0,100442.0,198841.0,-98399.0
2016-08-02,378500.0,104516.0,208619.0,-104103.0
2016-07-26,400035.0,109193.0,221793.0,-112600.0
2016-07-19,388905.0,111578.0,211469.0,-99891.0
2016-07-12,370372.0,107635.0,195295.0,-87660.0
2016-07-05,362649.0,112011.0,187338.0,-75327.0
2016-06-28,337273.0,109580.0,171514.0,-61934.0
2016-06-21,317400.0,88639.0,149985.0,-61346.0
2016-06-14,325402.0,104510.0,160999.0,-56489.0
2016-06-07,386010.0,93492.0,160604.0,-67112.0
2016-05-31,356178.0,98218.0,135872.0,-37654.0
2016-05-24,350242.0,93955.0,131850.0,-37895.0
2016-05-17,349559.0,101723.0,124310.0,-22587.0
2016-05-10,344978.0,101277.0,123149.0,-21872.0
2016-05-03,360461.0,113034.0,136653.0,-23619.0
2016-04-26,340200.0,99072.0,138739.0,-39667.0
2016-04-19,345563.0,101211.0,148128.0,-46917.0
2016-04-12,333535.0,89216.0,141267.0,-52051.0
2016-04-05,338533.0,98014.0,151501.0,-53487.0
2016-03-29,330090.0,93726.0,157537.0,-63811.0
2016-03-22,324310.0,91334.0,157387.0,-66053.0
2016-03-15,322405.0,90353.0,167908.0,-77555.0
2016-03-08,433221.0,104165.0,176072.0,-71907.0
2016-03-01,417624.0,103965.0,172506.0,-68541.0
2016-02-23,422624.0,107566.0,154423.0,-46857.0
2016-02-16,429997.0,113970.0,162175.0,-48205.0
2016-02-09,441228.0,114607.0,177921.0,-63314.0
2016-02-02,403939.0,96012.0,183085.0,-87073.0
2016-01-26,402227.0,71446.0,198661.0,-127215.0
2016-01-19,400362.0,69449.0,206464.0,-137015.0
2016-01-12,398570.0,63162.0,209613.0,-146451.0
2016-01-05,407105.0,66857.0,227500.0,-160643.0
2015-12-29,400497.0,66973.0,227523.0,-160550.0
2015-12-22,406533.0,70509.0,231556.0,-161047.0
2015-12-15,404837.0,71295.0,231256.0,-159961.0
2015-12-08,474921.0,80378.0,252709.0,-172331.0
2015-12-01,462447.0,78782.0,261627.0,-182845.0
2015-11-24,444626.0,76296.0,251780.0,-175484.0
2015-11-17,436801.0,78898.0,243075.0,-164177.0
2015-11-10,421967.0,78994.0,221933.0,-142939.0
2015-11-03,405462.0,72883.0,207217.0,-134334.0
2015-10-27,380564.0,70351.0,176285.0,-105934.0
2015-10-20,357133.0,76291.0,138857.0,-62566.0
2015-10-13,349720.0,71132.0,151708.0,-80576.0
2015-10-06,337606.0,65410.0,154220.0,-88810.0
2015-09-29,322721.0,61932.0,149592.0,-87660.0
2015-09-22,315450.0,63526.0,144559.0,-81033.0
2015-09-15,311366.0,63416.0,147618.0,-84202.0
2015-09-08,383187.0,75715.0,156956.0,-81241.0
2015-09-01,363980.0,74910.0,142767.0,-67857.0
2015-08-25,374977.0,87807.0,153885.0,-66078.0
2015-08-18,356952.0,68473.0,161205.0,-92732.0
2015-08-11,361334.0,67373.0,182583.0,-115210.0
2015-08-04,367885.0,70620.0,184014.0,-113394.0
2015-07-28,357940.0,67842.0,171850.0,-104008.0
2015-07-21,366892.0,65728.0,178704.0,-112976.0
2015-07-14,356760.0,62676.0,170457.0,-107781.0
2015-07-07,354885.0,66161.0,165427.0,-99266.0
2015-06-30,346115.0,65554.0,165589.0,-100035.0
2015-06-23,345427.0,67867.0,167173.0,-99306.0
2015-06-16,350145.0,82714.0,172071.0,-89357.0
2015-06-09,436540.0,52643.0,190617.0,-137974.0
2015-06-02,428403.0,49471.0,214983.0,-165512.0
2015-05-26,431927.0,44221.0,215961.0,-171740.0
2015-05-19,428580.0,38758.0,207097.0,-168339.0
2015-05-12,439122.0,43333.0,222309.0,-178976.0
2015-05-05,449254.0,50116.0,240243.0,-190127.0
2015-04-28,456919.0,50734.0,248500.0,-197766.0
2015-04-21,457610.0,46821.0,261466.0,-214645.0
2015-04-14,453518.0,45264.0,257611.0,-212347.0
2015-04-07,441624.0,39444.0,254702.0,-215258.0
2015-03-31,459746.0,41709.0,268269.0,-226560.0
2015-03-24,460950.0,50148.0,271111.0,-220963.0
2015-03-17,449508.0,56329.0,250103.0,-193774.0
2015-03-10,496465.0,61271.0,242344.0,-181073.0
2015-03-03,440733.0,48467.0,220856.0,-172389.0
2015-02-24,431217.0,45511.0,223247.0,-177736.0
2015-02-17,438411.0,47175.0,232757.0,-185582.0
2015-02-10,444139.0,47217.0,241858.0,-194641.0
2015-02-03,457209.0,47719.0,244028.0,-196309.0
2015-01-27,449726.0,50489.0,235234.0,-184745.0
2015-01-20,450262.0,52047.0,232777.0,-180730.0
2015-01-13,422426.0,50858.0,218709.0,-167851.0
2015-01-06,406624.0,46016.0,207056.0,-161040.0
2014-12-30,386295.0,43202.0,195421.0,-152219.0
2014-12-23,376849.0,40690.0,187294.0,-146604.0
2014-12-16,368171.0,56179.0,182834.0,-126655.0
2014-12-09,477861.0,58306.0,195218.0,-136912.0
2014-12-02,462058.0,57272.0,216551.0,-159279.0
2014-11-25,465339.0,57982.0,223062.0,-165080.0
2014-11-18,465168.0,58048.0,226778.0,-168730.0
2014-11-11,463976.0,60454.0,224347.0,-163893.0
2014-11-04,465332.0,59566.0,238587.0,-179021.0
2014-10-28,441369.0,59054.0,224761.0,-165707.0
2014-10-21,439863.0,60188.0,219559.0,-159371.0
2014-10-14,434873.0,60158.0,215500.0,-155342.0
2014-10-07,425656.0,61467.0,207679.0,-146212.0
2014-09-30,409986.0,67030.0,204555.0,-137525.0
2014-09-23,398937.0,60654.0,202619.0,-141965.0
2014-09-16,397652.0,79552.0,216701.0,-137149.0
2014-09-09,484306.0,59376.0,216881.0,-157505.0
2014-09-02,419850.0,59398.0,220821.0,-161423.0
2014-08-26,402709.0,53989.0,204646.0,-150657.0
2014-08-19,396460.0,56774.0,195599.0,-138825.0
2014-08-12,376424.0,51596.0,177613.0,-126017.0
2014-08-05,379004.0,55179.0,183926.0,-128747.0
2014-07-29,356865.0,56562.0,164637.0,-108075.0
2014-07-22,339706.0,58142.0,146965.0,-88823.0
2014-07-15,310661.0,59506.0,122352.0,-62846.0
2014-07-08,294381.0,51595.0,110860.0,-59265.0
2014-07-01,291488.0,52665.0,113441.0,-60776.0
2014-06-24,291244.0,55062.0,112565.0,-57503.0
2014-06-17,285489.0,51405.0,113240.0,-61835.0
2014-06-10,331636.0,43739.0,100924.0,-57185.0
2014-06-03,280747.0,57109.0,90134.0,-33025.0
2014-05-27,274051.0,70753.0,87386.0,-16633.0
2014-05-20,268199.0,75013.0,84233.0,-9220.0
2014-05-13,268142.0,84383.0,86558.0,-2175.0
2014-05-06,277013.0,110673.0,78122.0,32551.0
2014-04-29,271515.0,102285.0,76551.0,25734.0
2014-04-22,266259.0,101204.0,75430.0,25774.0
2014-04-15,270722.0,106252.0,78564.0,27688.0
2014-04-08,261439.0,92635.0,69335.0,23300.0
2014-04-01,260075.0,101849.0,68611.0,33238.0
2014-03-25,262179.0,106914.0,67280.0,39634.0
2014-03-18,264443.0,117819.0,64828.0,52991.0
2014-03-11,322020.0,110103.0,73718.0,36385.0
2014-03-04,304308.0,103868.0,80416.0,23452.0
2014-02-25,296924.0,93003.0,79103.0,13900.0
2014-02-18,291360.0,88634.0,80035.0,8599.0
2014-02-11,281037.0,75048.0,81977.0,-6929.0
2014-02-04,274146.0,67614.0,81224.0,-13610.0
2014-01-28,260799.0,86963.0,72616.0,14347.0
2014-01-21,255300.0,79321.0,83093.0,-3772.0
2014-01-14,243434.0,87059.0,77813.0,9246.0
2014-01-07,238570.0,88119.0,73621.0,14498.0
2013-12-31,242071.0,101916.0,71327.0,30589.0
2013-12-24,240206.0,102462.0,70290.0,32172.0
2013-12-17,230955.0,97780.0,69857.0,27923.0
2013-12-10,302100.0,91669.0,75739.0,15930.0
2013-12-03,253653.0,82230.0,72918.0,9312.0
2013-11-26,243049.0,74118.0,74549.0,-431.0
2013-11-19,232326.0,81070.0,72159.0,8911.0
2013-11-12,229166.0,86121.0,69295.0,16826.0
2013-11-05,252554.0,103333.0,70190.0,33143.0
2013-10-29,282923.0,136054.0,65437.0,70617.0
2013-10-22,278139.0,137061.0,64627.0,72434.0
2013-10-15,257199.0,121327.0,60953.0,60374.0
2013-10-08,263859.0,127301.0,58618.0,68683.0
2013-10-01,255067.0,128580.0,60304.0,68276.0
2013-09-24,254464.0,129862.0,64018.0,65844.0
2013-09-17,218264.0,100963.0,69056.0,31907.0
2013-09-10,257969.0,82772.0,70076.0,12696.0
2013-09-03,244563.0,98589.0,75851.0,22738.0
2013-08-27,248672.0,113592.0,73511.0,40081.0
2013-08-20,249660.0,113092.0,76346.0,36746.0
2013-08-13,225665.0,89984.0,73927.0,16057.0
2013-08-06,228726.0,85239.0,79178.0,6061.0
2013-07-30,222957.0,78211.0,86715.0,-8504.0
2013-07-23,219429.0,63130.0,91030.0,-27900.0
2013-07-16,220137.0,53228.0,90393.0,-37165.0
2013-07-09,225051.0,52159.0,93059.0,-40900.0
2013-07-02,196064.0,59270.0,75360.0,-16090.0
2013-06-25,211651.0,87192.0,69835.0,17357.0
2013-06-18,213331.0,91304.0,71274.0,20030.0
2013-06-11,260418.0,68956.0,76489.0,-7533.0
2013-06-04,240733.0,43804.0,95425.0,-51621.0
2013-05-28,264212.0,36916.0,121560.0,-84644.0
2013-05-21,265194.0,43037.0,123986.0,-80949.0
2013-05-14,232417.0,52843.0,99764.0,-46921.0
2013-05-07,214597.0,52517.0,86050.0,-33533.0
2013-04-30,222618.0,56771.0,86920.0,-30149.0
2013-04-23,220051.0,47807.0,82082.0,-34275.0
2013-04-16,215657.0,49321.0,79085.0,-29764.0
2013-04-09,220353.0,35343.0,86201.0,-50858.0
2013-04-02,235871.0,44459.0,110160.0,-65701.0
2013-03-26,204257.0,41260.0,90355.0,-49095.0
2013-03-19,195073.0,48958.0,93842.0,-44884.0
2013-03-12,213113.0,57473.0,82260.0,-24787.0
2013-03-05,218469.0,63355.0,89471.0,-26116.0
2013-02-26,230567.0,74832.0,84226.0,-9394.0
2013-02-19,234039.0,81014.0,61911.0,19103.0
2013-02-12,239566.0,87135.0,62954.0,24181.0
2013-02-05,251236.0,97397.0,59445.0,37952.0
2013-01-29,237856.0,93791.0,66319.0,27472.0
2013-01-22,216059.0,83840.0,62459.0,21381.0
2013-01-15,211373.0,80174.0,72859.0,7315.0
2013-01-08,194251.0,66329.0,74364.0,-8035.0
2012-12-31,207608.0,81932.0,76806.0,5126.0
2012-12-24,202591.0,75072.0,77621.0,-2549.0
2012-12-18,193681.0,69460.0,79196.0,-9736.0
2012-12-11,241932.0,51536.0,83159.0,-31623.0
2012-12-04,217546.0,48300.0,81095.0,-32795.0
2012-11-27,210234.0,35799.0,102492.0,-66693.0
2012-11-20,232328.0,36692.0,128092.0,-91400.0
2012-11-13,231660.0,39863.0,123509.0,-83646.0
2012-11-06,227725.0,45212.0,112353.0,-67141.0
2012-10-30,221524.0,38189.0,96393.0,-58204.0
2012-10-23,216842.0,38171.0,93390.0,-55219.0
2012-10-16,219809.0,42041.0,95536.0,-53495.0
2012-10-09,227541.0,39946.0,112516.0,-72570.0
2012-10-02,217516.0,48335.0,98600.0,-50265.0
2012-09-25,218363.0,53345.0,103583.0,-50238.0
2012-09-18,234394.0,48817.0,122299.0,-73482.0
2012-09-11,332637.0,43180.0,136838.0,-93658.0
2012-09-04,314363.0,46580.0,148886.0,-102306.0
2012-08-28,311925.0,45927.0,147488.0,-101561.0
2012-08-21,321166.0,45986.0,169918.0,-123932.0
2012-08-14,321568.0,43152.0,180962.0,-137810.0
2012-08-07,322243.0,46742.0,178453.0,-131711.0
2012-07-31,311436.0,41327.0,180321.0,-138994.0
2012-07-24,324443.0,39501.0,194567.0,-155066.0
2012-07-17,323228.0,31821.0,199070.0,-167249.0
2012-07-10,326374.0,36409.0,202114.0,-165705.0
2012-07-03,302289.0,32236.0,178413.0,-146177.0
2012-06-26,315785.0,36933.0,196813.0,-159880.0
2012-06-19,311933.0,54449.0,195515.0,-141066.0
2012-06-12,422131.0,39245.0,234432.0,-195187.0
2012-06-05,401812.0,36651.0,251069.0,-214418.0
2012-05-29,394160.0,40287.0,243702.0,-203415.0
2012-05-22,376708.0,34714.0,230075.0,-195361.0
2012-05-15,356674.0,38475.0,212344.0,-173869.0
2012-05-08,321037.0,36022.0,180006.0,-143984.0
2012-05-01,279605.0,34957.0,141947.0,-106990.0
2012-04-24,287215.0,36289.0,149656.0,-113367.0
2012-04-17,295844.0,40310.0,158435.0,-118125.0
2012-04-10,274830.0,39253.0,140617.0,-101364.0
2012-04-03,241006.0,39835.0,119315.0,-79480.0
2012-03-27,239446.0,34033.0,123162.0,-89129.0
2012-03-20,258535.0,50416.0,133370.0,-82954.0
2012-03-13,311057.0,40325.0,139661.0,-99336.0
2012-03-06,284739.0,39943.0,156416.0,-116473.0
2012-02-28,271282.0,35728.0,145402.0,-109674.0
2012-02-21,287525.0,29369.0,171528.0,-142159.0
2012-02-14,291060.0,26774.0,175415.0,-148641.0
2012-02-07,288657.0,32128.0,172721.0,-140593.0
2012-01-31,305328.0,31906.0,189452.0,-157546.0
2012-01-24,315350.0,31299.0,202646.0,-171347.0
2012-01-17,300962.0,28396.0,188426.0,-160030.0
2012-01-10,294263.0,29770.0,184965.0,-155195.0
2012-01-03,282790.0,40441.0,179350.0,-138909.0
2011-12-27,276022.0,45183.0,173062.0,-127879.0
2011-12-20,266597.0,49557.0,163254.0,-113697.0
2011-12-13,327740.0,35507.0,151964.0,-116457.0
2011-12-06,283309.0,34521.0,130335.0,-95814.0
2011-11-29,277511.0,27620.0,131922.0,-104302.0
2011-11-22,260064.0,25943.0,111011.0,-85068.0
2011-11-15,244552.0,24048.0,100195.0,-76147.0
2011-11-08,231445.0,27943.0,82200.0,-54257.0
2011-11-01,231229.0,26311.0,86371.0,-60060.0
2011-10-25,235774.0,21323.0,97835.0,-76512.0
2011-10-18,230483.0,20977.0,98697.0,-77720.0
2011-10-11,223167.0,17040.0,90835.0,-73795.0
2011-10-04,220839.0,18104.0,100801.0,-82697.0
2011-09-27,215172.0,19705.0,102178.0,-82473.0
2011-09-20,201556.0,19920.0,99380.0,-79460.0
2011-09-13,264500.0,25704.0,80163.0,-54459.0
2011-09-06,209515.0,33167.0,69610.0,-36443.0
2011-08-30,179162.0,43894.0,44278.0,-384.0
2011-08-23,174714.0,47711.0,45172.0,2539.0
2011-08-16,168931.0,47094.0,40368.0,6726.0
2011-08-09,183571.0,49029.0,57302.0,-8273.0
2011-08-02,190722.0,58313.0,56550.0,1763.0
2011-07-26,183690.0,60177.0,43139.0,17038.0
2011-07-19,180314.0,58580.0,49334.0,9246.0
2011-07-12,185541.0,61392.0,48976.0,12416.0
2011-07-05,194329.0,81860.0,38666.0,43194.0
2011-06-28,183206.0,68800.0,35813.0,32987.0
2011-06-21,189190.0,72153.0,42382.0,29771.0
2011-06-14,190373.0,84580.0,34686.0,49894.0
2011-06-07,296126.0,96555.0,44719.0,51836.0
2011-05-31,270101.0,80494.0,58524.0,21970.0
2011-05-24,258663.0,75182.0,56053.0,19129.0
2011-05-17,250533.0,89941.0,48296.0,41645.0
2011-05-10,242927.0,98054.0,36607.0,61447.0
2011-05-03,264337.0,128460.0,28944.0,99516.0
2011-04-26,249000.0,105683.0,37404.0,68279.0
2011-04-19,244006.0,102686.0,40491.0,62195.0
2011-04-12,243203.0,105425.0,40440.0,64985.0
2011-04-05,236270.0,99405.0,39548.0,59857.0
2011-03-29,218177.0,93031.0,36401.0,56630.0
2011-03-22,194709.0,81574.0,33221.0,48353.0
2011-03-15,190848.0,86506.0,40190.0,46316.0
2011-03-08,263702.0,98171.0,35877.0,62294.0
2011-03-01,217066.0,83104.0,31796.0,51308.0
2011-02-22,207869.0,77454.0,31856.0,45598.0
2011-02-15,193304.0,63395.0,30931.0,32464.0
2011-02-08,203541.0,73502.0,38768.0,34734.0
2011-02-01,211730.0,80381.0,40447.0,39934.0
2011-01-25,199706.0,73488.0,50587.0,22901.0
2011-01-18,188933.0,67309.0,63200.0,4109.0
2011-01-11,202004.0,42359.0,87541.0,-45182.0
2011-01-04,163239.0,37102.0,61303.0,-24201.0
2010-12-28,162312.0,33833.0,60312.0,-26479.0
2010-12-21,156136.0,38604.0,52697.0,-14093.0
2010-12-14,146781.0,35689.0,45993.0,-10304.0
2010-12-07,198099.0,32322.0,47612.0,-15290.0
2010-11-30,203930.0,47264.0,54512.0,-7248.0
2010-11-23,187189.0,43670.0,51963.0,-8293.0
2010-11-16,195598.0,54708.0,46102.0,8606.0
2010-11-09,204528.0,61477.0,38194.0,23283.0
2010-11-02,206972.0,70185.0,31575.0,38610.0
2010-10-26,209103.0,70109.0,29604.0,40505.0
2010-10-19,219761.0,74855.0,28107.0,46748.0
2010-10-12,197836.0,68718.0,27207.0,41511.0
2010-10-05,197406.0,72979.0,24736.0,48243.0
2010-09-28,190039.0,70638.0,35308.0,35330.0
2010-09-21,167463.0,52300.0,47203.0,5097.0
2010-09-14,170651.0,54543.0,64187.0,-9644.0
2010-09-07,257788.0,53156.0,76855.0,-23699.0
2010-08-31,241133.0,51099.0,76668.0,-25569.0
2010-08-24,245448.0,54591.0,76194.0,-21603.0
2010-08-17,250090.0,61324.0,75951.0,-14627.0
2010-08-10,234276.0,55797.0,59528.0,-3731.0
2010-08-03,236101.0,60410.0,67707.0,-7297.0
2010-07-27,232193.0,56622.0,77961.0,-21339.0
2010-07-20,230118.0,55008.0,79259.0,-24251.0
2010-07-13,225703.0,56187.0,83237.0,-27050.0
2010-07-06,228333.0,56316.0,95225.0,-38909.0
2010-06-29,225752.0,43357.0,117027.0,-73670.0
2010-06-22,224050.0,41013.0,111987.0,-70974.0
2010-06-15,227632.0,49526.0,111886.0,-62360.0
2010-06-08,305060.0,45938.0,157883.0,-111945.0
2010-06-01,275266.0,45006.0,138331.0,-93325.0
2010-05-25,281966.0,45630.0,152366.0,-106736.0
2010-05-18,300526.0,54411.0,161554.0,-107143.0
2010-05-11,287589.0,39584.0,153474.0,-113890.0
2010-05-04,261076.0,36675.0,140077.0,-103402.0
2010-04-27,238298.0,34462.0,123475.0,-89013.0
2010-04-20,208291.0,33614.0,105038.0,-71424.0
2010-04-13,203199.0,37157.0,92621.0,-55464.0
2010-04-06,208883.0,39036.0,106259.0,-67223.0
2010-03-30,223554.0,35205.0,120531.0,-85326.0
2010-03-23,195287.0,39953.0,114870.0,-74917.0
2010-03-16,163822.0,41800.0,88141.0,-46341.0
2010-03-09,243524.0,32589.0,107140.0,-74551.0
2010-03-02,218803.0,35894.0,102664.0,-66770.0
2010-02-23,208474.0,32728.0,104351.0,-71623.0
2010-02-16,196042.0,34459.0,93881.0,-59422.0
2010-02-09,197457.0,34867.0,92019.0,-57152.0
2010-02-02,186878.0,31207.0,74948.0,-43741.0
2010-01-26,184978.0,33106.0,72645.0,-39539.0
2010-01-19,164501.0,34186.0,59468.0,-25282.0
2010-01-12,161287.0,36186.0,54103.0,-17917.0
2010-01-05,156155.0,37229.0,73017.0,-35788.0
2009-12-29,144152.0,34132.0,67929.0,-33797.0
2009-12-22,134600.0,40925.0,55252.0,-14327.0
2009-12-15,132017.0,42987.0,59435.0,-16448.0
2009-12-08,179294.0,52035.0,52546.0,-511.0
2009-12-01,175155.0,71123.0,48972.0,22151.0
2009-11-24,173834.0,70841.0,52374.0,18467.0
2009-11-17,172325.0,64268.0,52312.0,11956.0
2009-11-09,164192.0,67904.0,42731.0,25173.0
2009-11-03,161257.0,64023.0,41832.0,22191.0
2009-10-27,164798.0,67843.0,34974.0,32869.0
2009-10-20,170291.0,77829.0,41796.0,36033.0
2009-10-13,166326.0,79762.0,36395.0,43367.0
2009-10-06,170878.0,86229.0,35184.0,51045.0
2009-09-29,164913.0,77852.0,38086.0,39766.0
2009-09-22,162551.0,76545.0,38545.0,38000.0
2009-09-15,156349.0,74562.0,36790.0,37772.0
2009-09-08,149891.0,56543.0,38510.0,18033.0
2009-09-01,128047.0,42624.0,33607.0,9017.0
2009-08-25,128651.0,48251.0,30080.0,18171.0
2009-08-18,127640.0,38823.0,33091.0,5732.0
2009-08-11,130222.0,46396.0,29585.0,16811.0
2009-08-04,138237.0,61443.0,34337.0,27106.0
2009-07-28,136354.0,55671.0,35384.0,20287.0
2009-07-21,143414.0,66273.0,31501.0,34772.0
2009-07-14,116686.0,44406.0,30507.0,13899.0
2009-07-07,124035.0,49042.0,38730.0,10312.0
2009-06-30,114921.0,47701.0,30482.0,17219.0
2009-06-23,118077.0,48252.0,30829.0,17423.0
2009-06-16,106532.0,39854.0,27369.0,12485.0
2009-06-09,150683.0,49185.0,34161.0,15024.0
2009-06-02,151004.0,48585.0,41792.0,6793.0
2009-05-26,139357.0,47203.0,31619.0,15584.0
2009-05-19,125472.0,41754.0,29504.0,12250.0
2009-05-12,124499.0,41355.0,30940.0,10415.0
2009-05-05,110768.0,35025.0,31657.0,3368.0
2009-04-28,108592.0,30292.0,32365.0,-2073.0
2009-04-21,106679.0,29708.0,28111.0,1597.0
2009-04-14,108304.0,32836.0,27261.0,5575.0
2009-04-07,113508.0,31596.0,27724.0,3872.0
2009-03-31,104404.0,31906.0,29641.0,2265.0
2009-03-24,112887.0,32680.0,38138.0,-5458.0
2009-03-17,111077.0,33657.0,42696.0,-9039.0
2009-03-10,180278.0,33930.0,44162.0,-10232.0
2009-03-03,183858.0,34175.0,53606.0,-19431.0
2009-02-24,166903.0,33201.0,43282.0,-10081.0
2009-02-17,157952.0,32809.0,48246.0,-15437.0
2009-02-10,152419.0,33943.0,43937.0,-9994.0
2009-02-03,145456.0,35350.0,44402.0,-9052.0
2009-01-27,134554.0,32077.0,39566.0,-7489.0
2009-01-20,131714.0,27780.0,35360.0,-7580.0
2009-01-13,117502.0,26970.0,36318.0,-9348.0
2009-01-06,123878.0,33733.0,36108.0,-2375.0
2008-12-30,120499.0,32529.0,35733.0,-3204.0
2008-12-22,118546.0,30977.0,34622.0,-3645.0
2008-12-16,119389.0,30798.0,37424.0,-6626.0
2008-12-09,179318.0,29347.0,46015.0,-16668.0
2008-12-02,173018.0,29631.0,49828.0,-20197.0
2008-11-25,172366.0,27389.0,48867.0,-21478.0
2008-11-18,165121.0,29073.0,46431.0,-17358.0
2008-11-11,170226.0,25967.0,46588.0,-20621.0
2008-11-04,169608.0,27825.0,49258.0,-21433.0
2008-10-28,193760.0,25409.0,54461.0,-29052.0
2008-10-21,184062.0,23536.0,54156.0,-30620.0
2008-10-14,175810.0,24274.0,54374.0,-30100.0
2008-10-07,179895.0,32058.0,50720.0,-18662.0
2008-09-30,173238.0,27472.0,56404.0,-28932.0
2008-09-23,152022.0,33266.0,64323.0,-31057.0
2008-09-16,142148.0,35314.0,75968.0,-40654.0
2008-09-09,182828.0,35890.0,72322.0,-36432.0
2008-09-02,163458.0,37997.0,76620.0,-38623.0
2008-08-26,154444.0,36026.0,69804.0,-33778.0
2008-08-19,153468.0,39958.0,60322.0,-20364.0
2008-08-12,146235.0,39822.0,59249.0,-19427.0
2008-08-05,160311.0,55538.0,64985.0,-9447.0
2008-07-29,149933.0,51585.0,67803.0,-16218.0
2008-07-22,171505.0,70588.0,66517.0,4071.0
2008-07-15,183536.0,85052.0,62003.0,23049.0
2008-07-08,176211.0,81210.0,57203.0,24007.0
2008-07-01,179885.0,88162.0,60479.0,27683.0
2008-06-24,147275.0,57904.0,56472.0,1432.0
2008-06-17,132056.0,49514.0,58804.0,-9290.0
2008-06-10,254812.0,57544.0,65084.0,-7540.0
2008-06-03,230633.0,55845.0,70299.0,-14454.0
2008-05-27,222241.0,64503.0,67893.0,-3390.0
2008-05-20,212882.0,70240.0,63399.0,6841.0
2008-05-13,207346.0,55409.0,64908.0,-9499.0
2008-05-06,204066.0,54383.0,66895.0,-12512.0
2008-04-29,191308.0,48319.0,69634.0,-21315.0
2008-04-22,178052.0,81612.0,62705.0,18907.0
2008-04-15,175248.0,77532.0,57439.0,20093.0